User: anonymous   Login
Location: Unspecified
(0.0000°N, 0.0000°E)
Time: 09:00:23
(UTC+00:00)
Language:

DSP F6R - Orbit

View from above orbital plane
View from above orbital plane
View from above satellite
View from above satellite

Ground track
Ground track

The orbit data is extracted from the following two-line orbital elements,

1 15453U 84129A   17060.44906950 0.00000000  00000-0  00000-0 0    06
2 15453  15.9287 352.2283 0004865 257.2815 102.6761  0.98848285    05
Epoch (UTC): 01 March 2017 10:46:39
Eccentricity: 0.0004865
inclination: 15.9287°
perigee height: 36169 km
apogee height: 36211 km
right ascension of ascending node: 352.2283°
argument of perigee: 257.2815°
revolutions per day: 0.98848285
mean anomaly at epoch: 102.6761°
orbit number at epoch: 0

The dashed part of the orbit path shows where the satellite is in the earth's shadow,  

DLR